JE4YIZ-13 Weather Reports


Display with metric or nautical units.
time (UTC)temp
F
wind
direction
speed
MPH
gust
MPH
rain 1hr
in
rain 24hr
in
rain mn
in
humidity
%
barometer
mb
20260902182516 82 139 0.0 2.0 0.00 0.00 0.00 80 1008.3
20260902182025 82 98 1.0 2.0 0.00 0.00 0.00 80 1008.3
20260902181528 82 99 1.0 2.0 0.00 0.00 0.00 81 1008.2
20260902181027 82 115 1.0 2.0 0.00 0.00 0.00 81 1008.3
20260902180538 82 101 1.0 3.0 0.00 0.00 0.00 81 1008.4
20260902180018 82 90 1.0 3.0 0.00 0.00 0.00 81 1008.3
20260902175527 82 29 1.0 4.0 0.00 0.00 0.00 80 1008.4
20260902175036 82 63 1.0 4.0 0.00 0.00 0.00 81 1008.5
20260902174518 82 98 1.0 3.0 0.00 0.00 0.00 80 1008.5
20260902174023 82 94 2.0 4.0 0.00 0.00 0.00 80 1008.5
20260902173530 82 94 2.0 4.0 0.00 0.00 0.00 80 1008.4
20260902173038 82 10 2.0 4.0 0.00 0.00 0.00 80 1008.4
20260902172520 82 87 1.0 4.0 0.00 0.00 0.00 79 1008.5
20260902172028 82 86 2.0 4.0 0.00 0.00 0.00 79 1008.5
20260902171558 82 89 2.0 4.0 0.00 0.00 0.00 79 1008.6
20260902171040 82 95 1.0 3.0 0.00 0.00 0.00 78 1008.6
20260902170527 82 119 2.0 5.0 0.00 0.00 0.00 78 1008.6
20260902170030 82 79 2.0 5.0 0.00 0.00 0.00 78 1008.7
20260902165540 82 67 3.0 6.0 0.00 0.00 0.00 77 1008.7
20260902165021 82 105 1.0 4.0 0.00 0.00 0.00 77 1008.7
20260902164529 82 80 2.0 4.0 0.00 0.00 0.00 77 1008.7
20260902164039 82 96 1.0 6.0 0.00 0.00 0.00 77 1008.6
20260902163523 82 88 2.0 8.0 0.00 0.00 0.00 77 1008.7
20260902163029 82 103 2.0 8.0 0.00 0.00 0.00 78 1008.8
20260902162534 82 65 3.0 8.0 0.00 0.00 0.00 78 1008.8
20260902162017 81 27 3.0 5.0 0.00 0.00 0.00 80 1008.9
20260902161103 81 161 0.0 0.0 0.00 0.00 0.00 82 1008.9
20260902160526 81 161 0.0 0.0 0.00 0.00 0.00 83 1009.1
20260902160036 81 181 0.0 0.0 0.00 0.00 0.00 82 1009.1
20260902155522 81 181 0.0 0.0 0.00 0.00 0.00 82 1009.1
20260902155032 81 181 0.0 1.0 0.00 0.00 0.00 82 1009.2
20260902154515 81 181 0.0 2.0 0.00 0.00 0.00 82 1009.1
20260902154021 81 181 0.0 2.0 0.00 0.00 0.00 82 1009.1
20260902153531 81 155 0.0 0.0 0.00 0.00 0.00 81 1009.1
20260902153040 81 155 0.0 0.0 0.00 0.00 0.00 81 1009.1
20260902152524 81 155 0.0 1.0 0.00 0.00 0.00 80 1009.2
20260902152055 81 155 0.0 1.0 0.00 0.00 0.00 80 1009.2
20260902151516 82 155 0.0 3.0 0.00 0.00 0.00 80 1009.2
20260902151017 82 165 0.0 3.0 0.00 0.00 0.00 80 1009.2
20260902150548 82 111 0.0 2.0 0.00 0.00 0.00 80 1009.2
20260902150030 82 92 1.0 2.0 0.00 0.00 0.00 80 1009.1
20260902145532 82 138 1.0 4.0 0.00 0.00 0.00 80 1009.3
20260902145041 82 106 2.0 4.0 0.00 0.00 0.00 80 1009.2
20260902144524 82 82 1.0 4.0 0.00 0.00 0.00 81 1009.1
20260902144034 82 102 1.0 3.0 0.00 0.00 0.00 81 1009.1
20260902143027 82 99 2.0 5.0 0.00 0.00 0.00 80 1009.0
20260902142527 82 88 2.0 4.0 0.00 0.00 0.00 80 1008.9
20260902142054 82 75 2.0 6.0 0.00 0.00 0.00 80 1008.9
20260902141603 82 68 3.0 6.0 0.00 0.00 0.00 80 1008.9
20260902141023 82 101 2.0 4.0 0.00 0.00 0.00 80 1008.9
20260902140534 81 109 2.0 4.0 0.00 0.00 0.00 80 1008.9
20260902140041 81 89 1.0 3.0 0.00 0.00 0.00 80 1008.9
20260902135523 81 167 0.0 2.0 0.00 0.00 0.00 80 1008.9
20260902135102 81 164 0.0 1.0 0.00 0.00 0.00 80 1008.9
20260902134523 81 164 0.0 1.0 0.00 0.00 0.00 80 1008.9
20260902134033 81 164 0.0 2.0 0.00 0.00 0.00 79 1009.0
20260902133539 82 164 0.0 2.0 0.00 0.00 0.00 79 1008.9
20260902133025 82 147 0.0 1.0 0.00 0.00 0.00 79 1009.0
20260902132533 82 128 0.0 3.0 0.00 0.00 0.00 79 1009.0
20260902132041 82 126 0.0 5.0 0.00 0.00 0.00 79 1009.2
20260902131523 82 103 2.0 5.0 0.00 0.00 0.00 79 1009.4
20260902131027 82 96 3.0 5.0 0.00 0.00 0.00 78 1009.4
20260902130537 82 116 1.0 4.0 0.00 0.00 0.00 78 1009.4
20260902130017 82 101 1.0 4.0 0.00 0.00 0.00 78 1009.4
20260902125526 82 93 1.0 4.0 0.00 0.00 0.00 77 1009.5
20260902125037 82 124 0.0 3.0 0.00 0.00 0.00 77 1009.5
20260902124517 82 181 1.0 3.0 0.00 0.00 0.00 77 1009.6
20260902124027 82 96 1.0 4.0 0.00 0.00 0.00 76 1009.6
20260902123529 82 153 2.0 4.0 0.00 0.00 0.00 76 1009.6
20260902123029 82 109 1.0 4.0 0.00 0.00 0.00 76 1009.7
20260902122539 82 106 2.0 4.0 0.00 0.00 0.00 76 1009.7
20260902122019 82 108 1.0 4.0 0.00 0.00 0.00 77 1009.7
20260902121528 82 175 1.0 6.0 0.00 0.00 0.00 76 1009.5
20260902121037 82 281 2.0 6.0 0.00 0.00 0.00 76 1009.6
20260902120541 82 78 1.0 4.0 0.00 0.00 0.00 77 1009.6
20260902120017 82 135 2.0 5.0 0.00 0.00 0.00 76 1009.6
20260902115522 82 115 2.0 7.0 0.00 0.00 0.00 76 1009.5
20260902115030 83 100 2.0 7.0 0.00 0.00 0.00 76 1009.7
20260902114539 83 177 2.0 6.0 0.00 0.00 0.00 76 1009.6
20260902114021 83 171 2.0 7.0 0.00 0.00 0.00 76 1009.6
20260902113531 82 69 2.0 6.0 0.00 0.00 0.00 76 1009.7
20260902113037 82 113 2.0 6.0 0.00 0.00 0.00 77 1009.7
20260902112519 82 153 1.0 3.0 0.00 0.00 0.00 78 1009.8
20260902112027 82 129 1.0 5.0 0.00 0.00 0.00 78 1009.8
20260902111530 82 151 1.0 5.0 0.00 0.00 0.00 78 1009.8
20260902111037 82 334 1.0 4.0 0.00 0.00 0.00 78 1009.7
20260902110520 82 172 1.0 6.0 0.00 0.00 0.00 79 1009.7
20260902110026 82 175 2.0 6.0 0.00 0.00 0.00 79 1009.6
20260902105536 82 129 1.0 4.0 0.00 0.00 0.00 79 1009.5
20260902105018 82 153 0.0 3.0 0.00 0.00 0.00 79 1009.5
20260902104519 82 221 0.0 4.0 0.00 0.00 0.00 79 1009.4
20260902103558 82 107 1.0 5.0 0.00 0.00 0.00 79 1009.5
20260902103038 82 294 2.0 7.0 0.00 0.00 0.00 79 1009.4
20260902102526 83 198 1.0 3.0 0.00 0.00 0.00 78 1009.5
20260902102059 83 139 1.0 3.0 0.00 0.00 0.00 78 1009.4
20260902101541 83 102 1.0 5.0 0.00 0.00 0.00 78 1009.5
20260902101029 83 122 1.0 7.0 0.00 0.00 0.00 78 1009.4
20260902100539 83 89 2.0 7.0 0.00 0.00 0.00 78 1009.4
20260902100019 83 117 1.0 4.0 0.00 0.00 0.00 78 1009.4
20260902095524 83 153 1.0 11.0 0.00 0.00 0.00 78 1009.4
20260902095033 83 55 3.0 11.0 0.00 0.00 0.00 78 1009.4
20260902094542 83 132 1.0 7.0 0.00 0.00 0.00 78 1009.4
20260902094023 83 108 3.0 7.0 0.00 0.00 0.00 78 1009.5
20260902093531 83 143 4.0 7.0 0.00 0.00 0.00 77 1009.4
20260902093100 84 35 4.0 9.0 0.00 0.00 0.00 77 1009.5
20260902092520 84 100 3.0 9.0 0.00 0.00 0.00 76 1009.4
20260902092026 84 188 1.0 7.0 0.00 0.00 0.00 75 1009.4
20260902091535 84 80 4.0 10.0 0.00 0.00 0.00 75 1009.4
20260902091017 84 126 3.0 10.0 0.00 0.00 0.00 74 1009.4
20260902090526 84 74 3.0 8.0 0.00 0.00 0.00 74 1009.4
20260902090046 85 319 2.0 8.0 0.00 0.00 0.00 74 1009.3
20260902085516 85 129 1.0 5.0 0.00 0.00 0.00 73 1009.1
20260902085024 85 202 2.0 6.0 0.00 0.00 0.00 73 1009.2
20260902084554 85 165 2.0 7.0 0.00 0.00 0.00 72 1009.2
20260902084059 86 98 3.0 7.0 0.00 0.00 0.00 71 1009.2
20260902083540 86 174 1.0 7.0 0.00 0.00 0.00 72 1009.2
20260902083026 86 103 3.0 7.0 0.00 0.00 0.00 72 1009.2
20260902082558 86 61 3.0 6.0 0.00 0.00 0.00 72 1009.3
20260902082018 86 70 3.0 7.0 0.00 0.00 0.00 71 1009.4
20260902081527 87 43 5.0 7.0 0.00 0.00 0.00 70 1009.1
20260902081036 87 93 3.0 10.0 0.00 0.00 0.00 69 1009.0
20260902080518 87 73 4.0 9.0 0.00 0.00 0.00 68 1008.9
20260902080021 88 33 3.0 9.0 0.00 0.00 0.00 67 1008.8
20260902075531 88 96 5.0 9.0 0.00 0.00 0.00 67 1008.9
20260902075041 88 210 3.0 10.0 0.00 0.00 0.00 67 1008.9
20260902074522 89 93 3.0 6.0 0.00 0.00 0.00 66 1008.9
20260902074031 89 155 2.0 7.0 0.00 0.00 0.00 66 1008.9
20260902073542 89 165 3.0 7.0 0.00 0.00 0.00 66 1008.9
20260902073021 89 104 2.0 7.0 0.00 0.00 0.00 66 1008.9
20260902072526 89 247 2.0 9.0 0.00 0.00 0.00 67 1008.9
20260902072034 88 93 3.0 10.0 0.00 0.00 0.00 66 1008.8
20260902071537 89 48 5.0 10.0 0.00 0.00 0.00 65 1008.8
20260902071025 89 17 3.0 8.0 0.00 0.00 0.00 66 1008.8
20260902070605 89 277 4.0 7.0 0.00 0.00 0.00 65 1008.8
20260902070018 89 142 2.0 12.0 0.00 0.00 0.00 66 1008.9
20260902065527 89 191 4.0 12.0 0.00 0.00 0.00 66 1008.8
20260902065032 89 193 4.0 9.0 0.00 0.00 0.00 66 1008.9
20260902064541 89 63 6.0 9.0 0.00 0.00 0.00 67 1008.9
20260902064022 89 300 3.0 9.0 0.00 0.00 0.00 68 1009.0
20260902063534 88 294 4.0 8.0 0.00 0.00 0.00 67 1009.1
20260902063042 89 78 3.0 9.0 0.00 0.00 0.00 67 1009.1
20260902062522 89 47 4.0 9.0 0.00 0.00 0.00 66 1009.2
20260902062054 88 113 3.0 6.0 0.00 0.00 0.00 68 1009.3
20260902061516 87 45 3.0 12.0 0.00 0.00 0.00 69 1009.4
20260902061035 87 71 5.0 12.0 0.00 0.00 0.00 68 1009.5
20260902060519 87 129 2.0 8.0 0.00 0.00 0.00 67 1009.4
20260902060025 88 19 4.0 8.0 0.00 0.00 0.00 67 1009.5
20260902055556 88 124 5.0 8.0 0.00 0.00 0.00 66 1009.3
20260902055017 89 67 3.0 8.0 0.00 0.00 0.00 66 1009.3
20260902054517 89 105 4.0 7.0 0.00 0.00 0.00 65 1009.4
20260902054022 89 139 4.0 8.0 0.00 0.00 0.00 66 1009.5
20260902053532 88 103 4.0 8.0 0.00 0.00 0.00 66 1009.5
20260902053040 88 132 5.0 13.0 0.00 0.00 0.00 67 1009.5
20260902052522 88 61 5.0 13.0 0.00 0.00 0.00 67 1009.6
20260902052051 89 61 4.0 9.0 0.00 0.00 0.00 66 1009.7
20260902051540 89 104 4.0 10.0 0.00 0.00 0.00 66 1009.6
20260902051021 89 89 5.0 10.0 0.00 0.00 0.00 65 1009.7
20260902050029 89 74 6.0 11.0 0.00 0.00 0.00 63 1009.7
20260902045534 90 162 3.0 9.0 0.00 0.00 0.00 63 1009.7
20260902045042 89 65 3.0 9.0 0.00 0.00 0.00 63 1009.8
20260902044524 89 358 6.0 14.0 0.00 0.00 0.00 62 1009.8
20260902044030 90 21 8.0 14.0 0.00 0.00 0.00 60 1009.9
20260902043540 90 95 3.0 9.0 0.00 0.00 0.00 61 1009.8
20260902043019 90 241 4.0 9.0 0.00 0.00 0.00 61 1009.9
20260902042527 90 120 3.0 9.0 0.00 0.00 0.00 62 1009.7
20260902042032 91 91 5.0 9.0 0.00 0.00 0.00 60 1009.8
20260902041536 90 134 2.0 8.0 0.00 0.00 0.00 60 1009.8
20260902041022 90 275 3.0 8.0 0.00 0.00 0.00 60 1009.8
20260902040551 90 119 4.0 11.0 0.00 0.00 0.00 60 1010.0
20260902040038 90 268 3.0 11.0 0.00 0.00 0.00 61 1009.9
20260902035540 89 203 3.0 9.0 0.00 0.00 0.00 60 1010.0
20260902035028 90 191 3.0 9.0 0.00 0.00 0.00 60 1010.1
20260902034538 90 103 3.0 8.0 0.00 0.00 0.00 61 1010.0
20260902033530 89 172 3.0 7.0 0.00 0.00 0.00 62 1010.2
20260902033058 89 302 2.0 7.0 0.00 0.00 0.00 64 1010.2
20260902032519 89 219 3.0 8.0 0.00 0.00 0.00 63 1010.2
20260902032029 89 231 3.0 8.0 0.00 0.00 0.00 62 1010.2
20260902031538 88 1 3.0 7.0 0.00 0.00 0.00 65 1010.2
20260902031018 88 46 4.0 7.0 0.00 0.00 0.00 64 1010.3
20260902030538 89 79 4.0 11.0 0.00 0.00 0.00 66 1010.3
20260902030040 88 251 7.0 11.0 0.00 0.00 0.00 65 1010.4
20260902025550 88 78 4.0 9.0 0.00 0.00 0.00 66 1010.4
20260902025037 88 49 4.0 11.0 0.00 0.00 0.00 66 1010.4
20260902024023 88 47 4.0 9.0 0.00 0.00 0.00 66 1010.5
20260902023530 88 30 5.0 11.0 0.00 0.00 0.00 65 1010.6
20260902023036 88 114 3.0 9.0 0.00 0.00 0.00 67 1010.6
20260902022518 88 50 5.0 11.0 0.00 0.00 0.00 66 1010.6
20260902021515 88 120 4.0 9.0 0.00 0.00 0.00 65 1010.8
20260902021023 88 117 3.0 7.0 0.00 0.00 0.00 67 1010.8
20260902020553 87 52 4.0 9.0 0.00 0.00 0.00 68 1010.9
20260902020040 87 93 3.0 10.0 0.00 0.00 0.00 69 1010.8
20260902015519 87 62 6.0 10.0 0.00 0.00 0.00 68 1010.8
20260902015023 86 66 4.0 11.0 0.00 0.00 0.00 70 1010.8
20260902014519 86 46 6.0 13.0 0.00 0.00 0.00 68 1010.9
20260902014028 87 74 8.0 13.0 0.00 0.00 0.00 68 1010.9
20260902013537 87 44 6.0 10.0 0.00 0.00 0.00 68 1010.9
20260902013043 87 55 4.0 10.0 0.00 0.00 0.00 67 1010.9
20260902012523 87 140 5.0 8.0 0.00 0.00 0.00 65 1010.9
20260902012030 87 91 3.0 7.0 0.00 0.00 0.00 67 1010.8
20260902011540 87 121 3.0 9.0 0.00 0.00 0.00 69 1010.8
20260902011021 87 67 4.0 10.0 0.00 0.00 0.00 68 1010.9
20260902010527 87 174 5.0 9.0 0.00 0.00 0.00 67 1011.0
20260902010035 87 67 2.0 9.0 0.00 0.00 0.00 69 1010.9
20260902005604 87 62 5.0 9.0 0.00 0.00 0.00 68 1010.9
20260902005016 87 176 2.0 8.0 0.00 0.00 0.00 69 1010.8
20260902004546 87 94 2.0 8.0 0.00 0.00 0.00 69 1010.8
20260902004034 87 114 2.0 8.0 0.00 0.00 0.00 70 1010.8
20260902003544 86 75 4.0 8.0 0.00 0.00 0.00 69 1010.7
20260902003038 86 42 2.0 7.0 0.00 0.00 0.00 69 1010.8
20260902002520 86 44 3.0 7.0 0.00 0.00 0.00 69 1010.8
20260902002029 86 123 3.0 8.0 0.00 0.00 0.00 70 1010.8
20260902001539 86 92 2.0 9.0 0.00 0.00 0.00 71 1010.8
20260902001019 85 112 2.0 9.0 0.00 0.00 0.00 73 1010.7
20260902000550 85 77 4.0 10.0 0.00 0.00 0.00 72 1010.7
20260902000026 85 84 6.0 10.0 0.00 0.00 0.00 73 1010.7
20260901235531 85 95 4.0 10.0 0.00 0.00 0.00 73 1010.7
20260901235039 85 53 3.0 8.0 0.00 0.00 0.00 73 1010.6
20260901234520 85 64 5.0 9.0 0.00 0.00 0.00 72 1010.7
20260901234049 85 64 5.0 9.0 0.00 0.00 0.00 72 1010.6
20260901233535 85 89 2.0 7.0 0.00 0.00 0.00 73 1010.6
20260901233041 85 77 3.0 8.0 0.00 0.00 0.00 73 1010.6
20260901232524 85 78 4.0 9.0 0.00 0.00 0.00 72 1010.5
20260901232033 85 65 4.0 6.0 0.00 0.00 0.00 72 1010.5
20260901231019 84 41 4.0 8.0 0.00 0.00 0.00 74 1010.5
20260901230529 84 33 4.0 8.0 0.00 0.00 0.00 74 1010.4
20260901230035 84 78 4.0 6.0 0.00 0.00 0.00 75 1010.4
20260901225517 84 101 3.0 7.0 0.00 0.00 0.00 75 1010.4
20260901225025 84 88 3.0 7.0 0.00 0.00 0.00 77 1010.5
20260901224533 84 53 4.0 7.0 0.00 0.00 0.00 78 1010.6
20260901224029 84 108 1.0 5.0 0.00 0.00 0.00 78 1010.6
20260901223539 83 68 2.0 5.0 0.00 0.00 0.00 79 1010.5
20260901223040 83 133 1.0 4.0 0.00 0.00 0.00 79 1010.6
20260901222526 83 118 1.0 4.0 0.00 0.00 0.00 79 1010.5
20260901222035 82 93 1.0 6.0 0.00 0.00 0.00 79 1010.5
20260901221517 82 105 2.0 6.0 0.00 0.00 0.00 80 1010.6
20260901221017 82 85 2.0 5.0 0.00 0.00 0.00 80 1010.5
20260901220543 81 64 3.0 5.0 0.00 0.00 0.00 81 1010.6
20260901220022 81 75 2.0 4.0 0.00 0.00 0.00 81 1010.6
20260901215530 81 104 1.0 3.0 0.00 0.00 0.00 82 1010.6
20260901215101 81 133 1.0 2.0 0.00 0.00 0.00 83 1010.6
20260901214520 81 102 1.0 2.0 0.00 0.00 0.00 83 1010.6
20260901214049 81 136 0.0 1.0 0.00 0.00 0.00 84 1010.7
20260901213540 80 114 0.0 2.0 0.00 0.00 0.00 84 1010.6
20260901213015 80 100 1.0 4.0 0.00 0.00 0.00 84 1010.7
20260901212539 80 88 1.0 4.0 0.00 0.00 0.00 84 1010.6
20260901212022 80 122 0.0 4.0 0.00 0.00 0.00 84 1010.5
20260901211529 80 89 1.0 4.0 0.00 0.00 0.00 84 1010.5
20260901211037 80 73 2.0 4.0 0.00 0.00 0.00 83 1010.5
20260901210519 80 91 2.0 3.0 0.00 0.00 0.00 83 1010.6
20260901210016 80 101 2.0 4.0 0.00 0.00 0.00 83 1010.6
20260901205525 80 86 2.0 4.0 0.00 0.00 0.00 83 1010.6
20260901205029 80 44 2.0 5.0 0.00 0.00 0.00 83 1010.6
20260901204538 80 79 3.0 5.0 0.00 0.00 0.00 83 1010.7
20260901204021 80 103 2.0 5.0 0.00 0.00 0.00 83 1010.7
20260901203530 80 104 1.0 5.0 0.00 0.00 0.00 83 1010.7
20260901203033 80 89 3.0 6.0 0.00 0.00 0.00 83 1010.5
20260901202515 81 85 4.0 6.0 0.00 0.00 0.00 83 1010.6
20260901202015 81 79 2.0 6.0 0.00 0.00 0.00 83 1010.6
20260901201518 81 68 2.0 5.0 0.00 0.00 0.00 83 1010.6
20260901201029 81 75 2.0 8.0 0.00 0.00 0.00 83 1010.5
20260901200601 81 68 3.0 9.0 0.00 0.00 0.00 83 1010.5
20260901200018 81 22 4.0 8.0 0.00 0.00 0.00 83 1010.5
20260901195527 81 49 4.0 9.0 0.00 0.00 0.00 83 1010.4
20260901195037 81 360 4.0 10.0 0.00 0.00 0.00 84 1010.4
20260901194518 81 340 5.0 10.0 0.00 0.00 0.00 84 1010.5
20260901194027 81 59 3.0 7.0 0.00 0.00 0.00 84 1010.4
20260901193534 81 72 4.0 6.0 0.00 0.00 0.00 84 1010.4
20260901193039 81 86 3.0 7.0 0.00 0.00 0.00 84 1010.5
20260901192520 81 110 3.0 5.0 0.00 0.00 0.00 84 1010.5
20260901192030 81 105 2.0 5.0 0.00 0.00 0.00 84 1010.5
20260901191539 81 80 2.0 5.0 0.00 0.00 0.00 84 1010.5
20260901191019 81 105 2.0 8.0 0.00 0.00 0.00 84 1010.4
20260901190529 81 9 3.0 8.0 0.00 0.00 0.00 84 1010.5
20260901190015 81 77 3.0 7.0 0.00 0.00 0.00 84 1010.4
20260901185521 81 68 2.0 5.0 0.00 0.00 0.00 84 1010.4
20260901185052 81 65 3.0 5.0 0.00 0.00 0.00 84 1010.4
20260901184540 81 23 3.0 6.0 0.00 0.00 0.00 84 1010.5
20260901184018 81 95 3.0 6.0 0.00 0.00 0.00 83 1010.6
20260901183529 81 114 3.0 6.0 0.00 0.00 0.00 83 1010.6
20260901183026 81 73 3.0 6.0 0.00 0.00 0.00 83 1010.6